Location: Bats
(43.6587°N, 0.4584°W)
Time: 11:00:46
(UTC+00:00)

RESURS DK-1 - Pass Details

Date: 12 January 2026
Orbit: 525 x 531 km, 69.9° (Epoch: 11 February)

Event Time Altitude Azimuth Distance (km) Brightness Sun altitude
Rises 18:59:02 0° 197° (SSW) 2,659 6.1 -23.3°
Reaches altitude 10° 19:01:13 10° 193° (SSW) 1,775 5.1 -23.7°
Enters shadow 19:03:20 30° 183° (S) 976 3.6 -24.1°
